Station Historical Data
Daily Summary for March 19, 2012 Units:  Metric    English   Both
« Previous Day
Next Day »
Daily Weekly Monthly Yearly Custom
  High: Low: Average:
Temperature: 27.2 °C 16.1 °C 21.4 °C
Dew Point: 16.2 °C 10.3 °C 13.6 °C
Humidity: 81% 45% 62%
Wind Speed: 19.3km/h 1.6km/h 7.2km/h
Wind Gust: 25.7km/h - -
Wind- - SE
Pressure: 1020.2 hPa 1014.8 hPa -
Precipitation: 0 mm    
Historical Graphs
 
 
Tabular Data for March 19, 2012
Time Temperature Dew Point Pressure Wind Wind Speed Wind Gust Humidity Rainfall Rate (Hourly) Conditions
00:00 19.2 °C 10.7 °C 1018.5 hPa SSE 3.2 km/h 4.8 km/h 58% 0 mm
00:01 19.2 °C 10.7 °C 1018.5 hPa SSE 3.2 km/h 4.8 km/h 58% 0 mm
00:06 19.1 °C 10.7 °C 1018.5 hPa SE 4.8 km/h 6.4 km/h 58% 0 mm
00:12 19.1 °C 10.6 °C 1018.5 hPa SE 3.2 km/h 4.8 km/h 58% 0 mm
00:17 19 °C 10.8 °C 1018.5 hPa ESE 4.8 km/h 6.4 km/h 59% 0 mm
00:22 19.2 °C 10.4 °C 1018.5 hPa SE 4.8 km/h 6.4 km/h 57% 0 mm
00:27 19.1 °C 10.7 °C 1018.5 hPa SE 4.8 km/h 6.4 km/h 58% 0 mm
00:32 19.1 °C 10.6 °C 1018.5 hPa SE 3.2 km/h 4.8 km/h 58% 0 mm
00:37 19.2 °C 10.7 °C 1018.5 hPa ESE 4.8 km/h 6.4 km/h 58% 0 mm
00:42 19.3 °C 10.6 °C 1018.5 hPa ESE 6.4 km/h 6.4 km/h 57% 0 mm
00:47 19.2 °C 10.5 °C 1018.5 hPa SE 6.4 km/h 8 km/h 57% 0 mm
00:52 19.2 °C 10.5 °C 1018.5 hPa SE 3.2 km/h 4.8 km/h 57% 0 mm
00:57 19.3 °C 10.3 °C 1018.5 hPa ESE 4.8 km/h 6.4 km/h 56% 0 mm
01:02 19.2 °C 10.5 °C 1018.5 hPa SE 6.4 km/h 6.4 km/h 57% 0 mm
01:07 19.1 °C 10.6 °C 1018.5 hPa SE 3.2 km/h 6.4 km/h 58% 0 mm
01:12 19 °C 10.6 °C 1018.5 hPa ESE 4.8 km/h 4.8 km/h 58% 0 mm
01:17 19.1 °C 10.6 °C 1018.5 hPa ESE 4.8 km/h 9.7 km/h 58% 0 mm
01:22 19.1 °C 10.7 °C 1018.2 hPa SE 6.4 km/h 6.4 km/h 58% 0 mm
01:27 19.1 °C 10.6 °C 1018.2 hPa SE 3.2 km/h 6.4 km/h 58% 0 mm
01:32 19 °C 10.8 °C 1018.2 hPa SE 4.8 km/h 6.4 km/h 59% 0 mm
01:37 19 °C 10.8 °C 1018.2 hPa ESE 6.4 km/h 6.4 km/h 59% 0 mm
01:42 19.1 °C 10.7 °C 1018.2 hPa SE 6.4 km/h 8 km/h 58% 0 mm
01:47 19.1 °C 10.9 °C 1018.2 hPa ESE 8 km/h 8 km/h 59% 0 mm
01:52 19 °C 10.8 °C 1018.2 hPa SE 8 km/h 8 km/h 59% 0 mm
01:57 19 °C 11.1 °C 1018.2 hPa ESE 6.4 km/h 8 km/h 60% 0 mm
02:02 18.9 °C 10.9 °C 1018.2 hPa SE 6.4 km/h 8 km/h 60% 0 mm
02:08 19 °C 11.3 °C 1018.2 hPa SE 8 km/h 9.7 km/h 61% 0 mm
02:13 19.1 °C 11.4 °C 1018.2 hPa SSE 9.7 km/h 9.7 km/h 61% 0 mm
02:18 19.1 °C 11.4 °C 1018.2 hPa SE 8 km/h 8 km/h 61% 0 mm
02:23 19.2 °C 11.7 °C 1018.2 hPa SE 8 km/h 11.3 km/h 62% 0 mm
02:28 19.1 °C 11.6 °C 1018.2 hPa ESE 6.4 km/h 9.7 km/h 62% 0 mm
02:33 18.8 °C 11.4 °C 1018.2 hPa SE 6.4 km/h 8 km/h 62% 0 mm
02:38 18.7 °C 11.5 °C 1018.2 hPa ESE 8 km/h 8 km/h 63% 0 mm
02:43 18.6 °C 11.6 °C 1018.2 hPa ESE 6.4 km/h 8 km/h 64% 0 mm
02:48 18.4 °C 11.8 °C 1018.2 hPa ESE 4.8 km/h 4.8 km/h 65% 0 mm
02:53 18.4 °C 11.8 °C 1018.2 hPa ESE 6.4 km/h 6.4 km/h 65% 0 mm
02:58 18.6 °C 11.9 °C 1018.2 hPa SE 4.8 km/h 8 km/h 65% 0 mm
03:03 18.7 °C 11.9 °C 1018.2 hPa SE 6.4 km/h 6.4 km/h 65% 0 mm
03:08 18.6 °C 11.9 °C 1018.2 hPa ESE 6.4 km/h 6.4 km/h 65% 0 mm
03:13 18.6 °C 11.9 °C 1018.2 hPa SE 4.8 km/h 8 km/h 65% 0 mm
03:18 18.6 °C 12.1 °C 1018.2 hPa SE 3.2 km/h 6.4 km/h 66% 0 mm
03:23 18.4 °C 12 °C 1018.2 hPa SSE 3.2 km/h 4.8 km/h 66% 0 mm
03:28 18.3 °C 12.1 °C 1018.2 hPa ESE 3.2 km/h 3.2 km/h 67% 0 mm
03:33 18.2 °C 12.2 °C 1018.2 hPa ESE 4.8 km/h 6.4 km/h 68% 0 mm
03:38 18.3 °C 12.3 °C 1018.2 hPa SE 4.8 km/h 6.4 km/h 68% 0 mm
03:43 18.3 °C 12.3 °C 1018.2 hPa SE 6.4 km/h 6.4 km/h 68% 0 mm
03:48 18.3 °C 12.5 °C 1017.8 hPa SE 3.2 km/h 4.8 km/h 69% 0 mm
03:53 18.2 °C 12.4 °C 1017.8 hPa SE 4.8 km/h 6.4 km/h 69% 0 mm
03:58 18.3 °C 12.6 °C 1017.8 hPa SE 4.8 km/h 8 km/h 69% 0 mm
04:03 18.4 °C 12.6 °C 1017.8 hPa SE 6.4 km/h 8 km/h 69% 0 mm
04:08 18.5 °C 12.7 °C 1017.8 hPa ESE 6.4 km/h 9.7 km/h 69% 0 mm
04:13 18.6 °C 12.8 °C 1017.8 hPa ESE 6.4 km/h 8 km/h 69% 0 mm
04:18 18.6 °C 13.1 °C 1017.8 hPa ESE 6.4 km/h 8 km/h 70% 0 mm
04:23 18.6 °C 13.1 °C 1017.8 hPa SE 9.7 km/h 9.7 km/h 70% 0 mm
04:28 18.7 °C 13.1 °C 1017.8 hPa SSE 8 km/h 8 km/h 70% 0 mm
04:33 18.7 °C 13.1 °C 1017.8 hPa SE 4.8 km/h 8 km/h 70% 0 mm
04:39 18.6 °C 13.1 °C 1017.8 hPa SSE 6.4 km/h 8 km/h 70% 0 mm
04:44 18.6 °C 13.2 °C 1017.5 hPa SE 4.8 km/h 8 km/h 71% 0 mm
04:49 18.4 °C 13.1 °C 1017.5 hPa SE 4.8 km/h 8 km/h 71% 0 mm
04:54 18.4 °C 13.1 °C 1017.5 hPa SE 6.4 km/h 9.7 km/h 71% 0 mm
04:59 18.3 °C 12.9 °C 1017.5 hPa ESE 8 km/h 9.7 km/h 71% 0 mm
05:04 18.2 °C 13.1 °C 1017.5 hPa ESE 6.4 km/h 8 km/h 72% 0 mm
05:09 17.9 °C 13.1 °C 1017.5 hPa ESE 9.7 km/h 9.7 km/h 73% 0 mm
05:14 18 °C 13.1 °C 1017.5 hPa SE 6.4 km/h 9.7 km/h 73% 0 mm
05:19 18.1 °C 13.2 °C 1017.5 hPa SE 4.8 km/h 8 km/h 73% 0 mm
05:24 18 °C 13.1 °C 1017.5 hPa SE 8 km/h 8 km/h 73% 0 mm
05:29 18 °C 13.1 °C 1017.5 hPa SE 4.8 km/h 9.7 km/h 73% 0 mm
05:34 17.9 °C 13.2 °C 1017.5 hPa SE 6.4 km/h 8 km/h 74% 0 mm
05:39 18.1 °C 13.2 °C 1017.5 hPa SE 6.4 km/h 11.3 km/h 73% 0 mm
05:44 18.1 °C 13.2 °C 1017.5 hPa SE 9.7 km/h 11.3 km/h 73% 0 mm
05:49 18.1 °C 13.2 °C 1017.5 hPa SSE 6.4 km/h 11.3 km/h 73% 0 mm
05:54 17.9 °C 13.2 °C 1017.5 hPa SE 8 km/h 11.3 km/h 74% 0 mm
05:59 17.7 °C 13.2 °C 1017.5 hPa SE 6.4 km/h 8 km/h 75% 0 mm
06:04 17.5 °C 13.2 °C 1017.5 hPa SSE 4.8 km/h 8 km/h 76% 0 mm
06:09 17.5 °C 13.2 °C 1017.5 hPa SSE 4.8 km/h 8 km/h 76% 0 mm
06:14 17.6 °C 13.3 °C 1017.5 hPa SSE 3.2 km/h 8 km/h 76% 0 mm
06:19 17.6 °C 13.3 °C 1017.8 hPa SSE 4.8 km/h 8 km/h 76% 0 mm
06:24 17.5 °C 13.2 °C 1017.8 hPa SE 3.2 km/h 4.8 km/h 76% 0 mm
06:29 17.3 °C 13.3 °C 1017.8 hPa SE 4.8 km/h 6.4 km/h 77% 0 mm
06:34 17.3 °C 13.2 °C 1017.8 hPa SE 4.8 km/h 8 km/h 77% 0 mm
06:39 17.2 °C 13.2 °C 1017.5 hPa ESE 6.4 km/h 8 km/h 77% 0 mm
06:44 17.4 °C 13.4 °C 1017.8 hPa SE 4.8 km/h 9.7 km/h 77% 0 mm
06:49 17.5 °C 13.2 °C 1017.8 hPa SE 4.8 km/h 6.4 km/h 76% 0 mm
06:54 17.4 °C 13.4 °C 1017.8 hPa ESE 4.8 km/h 6.4 km/h 77% 0 mm
06:59 17.4 °C 13.4 °C 1017.8 hPa ESE 4.8 km/h 6.4 km/h 77% 0 mm
07:04 17.4 °C 13.4 °C 1017.8 hPa SE 6.4 km/h 6.4 km/h 77% 0 mm
07:09 17.3 °C 13.3 °C 1018.2 hPa SE 3.2 km/h 6.4 km/h 77% 0 mm
07:14 17.3 °C 13.2 °C 1018.2 hPa ESE 3.2 km/h 6.4 km/h 77% 0 mm
07:19 17.3 °C 13.2 °C 1018.2 hPa SE 4.8 km/h 4.8 km/h 77% 0 mm
07:24 17.2 °C 13.1 °C 1018.2 hPa SE 3.2 km/h 4.8 km/h 77% 0 mm
07:29 16.9 °C 13.1 °C 1018.5 hPa ESE 3.2 km/h 4.8 km/h 78% 0 mm
07:35 16.8 °C 13 °C 1018.5 hPa ESE 1.6 km/h 3.2 km/h 78% 0 mm
07:40 16.7 °C 13 °C 1018.5 hPa ESE 1.6 km/h 3.2 km/h 79% 0 mm
07:45 16.4 °C 13 °C 1018.5 hPa ESE 3.2 km/h 3.2 km/h 80% 0 mm
07:50 16.4 °C 12.9 °C 1018.5 hPa East 3.2 km/h 4.8 km/h 80% 0 mm
07:55 16.3 °C 12.8 °C 1018.8 hPa East 3.2 km/h 3.2 km/h 80% 0 mm
08:00 16.3 °C 12.8 °C 1018.8 hPa East 3.2 km/h 3.2 km/h 80% 0 mm
08:05 16.2 °C 12.8 °C 1018.8 hPa East 3.2 km/h 4.8 km/h 80% 0 mm
08:10 16.2 °C 12.9 °C 1018.8 hPa East 3.2 km/h 3.2 km/h 81% 0 mm
08:15 16.2 °C 12.8 °C 1018.8 hPa East 3.2 km/h 3.2 km/h 80% 0 mm
08:20 16.3 °C 12.8 °C 1018.8 hPa ESE 3.2 km/h 3.2 km/h 80% 0 mm
08:25 16.2 °C 12.7 °C 1018.8 hPa East 3.2 km/h 4.8 km/h 80% 0 mm
08:30 16.1 °C 12.8 °C 1018.8 hPa East 3.2 km/h 3.2 km/h 81% 0 mm
08:35 16.1 °C 12.7 °C 1019.2 hPa ESE 1.6 km/h 3.2 km/h 80% 0 mm
08:40 16.2 °C 12.9 °C 1019.2 hPa ESE 1.6 km/h 1.6 km/h 81% 0 mm
08:45 16.3 °C 12.9 °C 1019.2 hPa East 1.6 km/h 3.2 km/h 80% 0 mm
08:50 16.5 °C 13.1 °C 1019.2 hPa East 1.6 km/h 4.8 km/h 80% 0 mm
08:55 16.6 °C 13.1 °C 1019.2 hPa East 3.2 km/h 3.2 km/h 80% 0 mm
09:00 16.6 °C 13.3 °C 1019.2 hPa East 3.2 km/h 3.2 km/h 81% 0 mm
09:05 16.8 °C 13.3 °C 1019.5 hPa East 1.6 km/h 3.2 km/h 80% 0 mm
09:10 16.9 °C 13.7 °C 1019.2 hPa East 1.6 km/h 1.6 km/h 81% 0 mm
09:15 16.9 °C 13.4 °C 1019.5 hPa ESE 1.6 km/h 3.2 km/h 80% 0 mm
09:20 17.1 °C 13.6 °C 1019.5 hPa East 4.8 km/h 4.8 km/h 80% 0 mm
09:25 17.2 °C 13.9 °C 1019.5 hPa East 4.8 km/h 4.8 km/h 81% 0 mm
09:30 17.5 °C 14.2 °C 1019.5 hPa ESE 4.8 km/h 6.4 km/h 81% 0 mm
09:35 17.8 °C 14.2 °C 1019.9 hPa ESE 4.8 km/h 6.4 km/h 79% 0 mm
09:36 17.9 °C 14.3 °C 1019.9 hPa ESE 4.8 km/h 6.4 km/h 79% 0 mm
09:41 18.2 °C 14.3 °C 1019.9 hPa East 3.2 km/h 4.8 km/h 78% 0 mm
09:46 18.6 °C 14.7 °C 1019.5 hPa ESE 3.2 km/h 4.8 km/h 78% 0 mm
09:51 18.9 °C 14.8 °C 1019.5 hPa ESE 4.8 km/h 4.8 km/h 77% 0 mm
09:56 19.2 °C 14.8 °C 1019.9 hPa SSE 3.2 km/h 6.4 km/h 76% 0 mm
10:01 19.6 °C 15 °C 1019.9 hPa SE 4.8 km/h 8 km/h 75% 0 mm
10:06 19.9 °C 14.7 °C 1019.9 hPa SSE 6.4 km/h 6.4 km/h 72% 0 mm
10:11 19.8 °C 14.6 °C 1019.9 hPa ESE 3.2 km/h 6.4 km/h 72% 0 mm
10:16 19.7 °C 14.7 °C 1019.9 hPa SE 4.8 km/h 4.8 km/h 73% 0 mm
10:21 19.8 °C 14.8 °C 1019.9 hPa South 4.8 km/h 6.4 km/h 73% 0 mm
10:26 20 °C 15 °C 1020.2 hPa SE 3.2 km/h 4.8 km/h 73% 0 mm
10:31 20.2 °C 14.7 °C 1020.2 hPa SE 3.2 km/h 4.8 km/h 71% 0 mm
10:37 20.7 °C 15.4 °C 1020.2 hPa ESE 6.4 km/h 6.4 km/h 72% 0 mm
10:42 20.9 °C 14.8 °C 1020.2 hPa SSE 8 km/h 11.3 km/h 68% 0 mm
10:47 21.1 °C 14.7 °C 1020.2 hPa SE 4.8 km/h 8 km/h 67% 0 mm
10:52 21.4 °C 15.1 °C 1020.2 hPa SSW 6.4 km/h 8 km/h 67% 0 mm
10:57 21.6 °C 14.5 °C 1020.2 hPa SE 8 km/h 9.7 km/h 64% 0 mm
11:02 21.7 °C 15.1 °C 1020.2 hPa SSW 3.2 km/h 8 km/h 66% 0 mm
11:07 21.9 °C 15 °C 1020.2 hPa South 4.8 km/h 8 km/h 65% 0 mm
11:12 22.1 °C 15 °C 1019.9 hPa SSW 6.4 km/h 11.3 km/h 64% 0 mm
11:17 22.5 °C 15.1 °C 1019.9 hPa SSE 6.4 km/h 9.7 km/h 63% 0 mm
11:22 22.6 °C 15.4 °C 1019.9 hPa SE 9.7 km/h 11.3 km/h 64% 0 mm
11:27 22.9 °C 14.7 °C 1019.9 hPa SE 8 km/h 12.9 km/h 60% 0 mm
11:32 22.9 °C 14.8 °C 1019.9 hPa South 11.3 km/h 12.9 km/h 60% 0 mm
11:37 23.1 °C 15.4 °C 1019.9 hPa South 6.4 km/h 9.7 km/h 62% 0 mm
11:43 23.1 °C 14.9 °C 1019.9 hPa South 9.7 km/h 12.9 km/h 60% 0 mm
11:48 23.2 °C 14.7 °C 1019.9 hPa SSE 11.3 km/h 11.3 km/h 59% 0 mm
11:53 23.3 °C 15.1 °C 1019.9 hPa SSW 8 km/h 11.3 km/h 60% 0 mm
11:58 23.6 °C 15.3 °C 1019.9 hPa SSW 6.4 km/h 9.7 km/h 60% 0 mm
12:03 23.6 °C 16.2 °C 1019.9 hPa SE 14.5 km/h 16.1 km/h 63% 0 mm
12:08 23.4 °C 15.2 °C 1019.9 hPa South 11.3 km/h 17.7 km/h 60% 0 mm
12:13 23.6 °C 15.1 °C 1019.9 hPa SSE 9.7 km/h 16.1 km/h 59% 0 mm
12:18 23.6 °C 14.3 °C 1019.9 hPa SSE 9.7 km/h 14.5 km/h 56% 0 mm
12:23 23.5 °C 14.8 °C 1019.5 hPa SSW 1.6 km/h 11.3 km/h 58% 0 mm
12:28 23.8 °C 14.5 °C 1019.5 hPa WSW 6.4 km/h 9.7 km/h 56% 0 mm
12:33 23.8 °C 14.5 °C 1019.5 hPa SW 8 km/h 9.7 km/h 56% 0 mm
12:38 23.7 °C 14.7 °C 1019.5 hPa SSW 9.7 km/h 11.3 km/h 57% 0 mm
12:43 23.8 °C 14.5 °C 1019.5 hPa SSW 3.2 km/h 12.9 km/h 56% 0 mm
12:48 23.8 °C 15 °C 1019.5 hPa SW 12.9 km/h 12.9 km/h 58% 0 mm
12:53 23.7 °C 14.4 °C 1019.5 hPa SSW 6.4 km/h 14.5 km/h 56% 0 mm
12:58 23.8 °C 14.8 °C 1019.5 hPa South 4.8 km/h 9.7 km/h 57% 0 mm
13:03 23.9 °C 14.6 °C 1019.5 hPa SSE 6.4 km/h 9.7 km/h 56% 0 mm
13:08 23.8 °C 15.3 °C 1019.5 hPa South 9.7 km/h 17.7 km/h 59% 0 mm
13:13 23.7 °C 14.7 °C 1019.2 hPa SSE 12.9 km/h 17.7 km/h 57% 0 mm
13:18 23.7 °C 14.4 °C 1019.2 hPa South 6.4 km/h 9.7 km/h 56% 0 mm
13:23 23.7 °C 14.7 °C 1019.2 hPa SSE 14.5 km/h 14.5 km/h 57% 0 mm
13:28 23.6 °C 14.3 °C 1019.2 hPa SSE 14.5 km/h 19.3 km/h 56% 0 mm
13:33 23.6 °C 14.3 °C 1019.2 hPa SSW 6.4 km/h 11.3 km/h 56% 0 mm
13:38 23.6 °C 14.6 °C 1018.8 hPa SE 8 km/h 12.9 km/h 57% 0 mm
13:43 23.6 °C 14.6 °C 1018.8 hPa SSE 11.3 km/h 11.3 km/h 57% 0 mm
13:48 23.7 °C 13.9 °C 1018.8 hPa SSE 9.7 km/h 12.9 km/h 54% 0 mm
13:53 23.8 °C 14.8 °C 1018.5 hPa SW 6.4 km/h 9.7 km/h 57% 0 mm
13:58 23.9 °C 14.6 °C 1018.5 hPa ESE 12.9 km/h 14.5 km/h 56% 0 mm
14:03 23.9 °C 14.6 °C 1018.5 hPa South 11.3 km/h 12.9 km/h 56% 0 mm
14:08 24.2 °C 14.3 °C 1018.5 hPa SSE 11.3 km/h 12.9 km/h 54% 0 mm
14:13 24.4 °C 15.6 °C 1018.2 hPa SE 11.3 km/h 12.9 km/h 58% 0 mm
14:18 24.8 °C 15.1 °C 1018.2 hPa SE 14.5 km/h 16.1 km/h 55% 0 mm
14:24 24.7 °C 15.4 °C 1018.2 hPa SE 16.1 km/h 19.3 km/h 56% 0 mm
14:29 24.6 °C 14.3 °C 1017.8 hPa East 14.5 km/h 17.7 km/h 53% 0 mm
14:34 24.4 °C 14.5 °C 1017.8 hPa ESE 16.1 km/h 20.9 km/h 54% 0 mm
14:39 24.3 °C 14.7 °C 1017.8 hPa ESE 8 km/h 16.1 km/h 55% 0 mm
14:44 24.2 °C 14.6 °C 1017.8 hPa ESE 9.7 km/h 11.3 km/h 55% 0 mm
14:49 24.3 °C 14.1 °C 1017.8 hPa SSE 12.9 km/h 16.1 km/h 53% 0 mm
14:54 24.8 °C 13.9 °C 1017.5 hPa ESE 11.3 km/h 17.7 km/h 51% 0 mm
14:59 25.2 °C 13.8 °C 1017.5 hPa SSE 9.7 km/h 19.3 km/h 49% 0 mm
15:04 25.6 °C 14.1 °C 1017.5 hPa SE 16.1 km/h 24.1 km/h 49% 0 mm
15:09 25.8 °C 14.9 °C 1017.2 hPa SE 12.9 km/h 17.7 km/h 51% 0 mm
15:14 25.9 °C 14.7 °C 1017.2 hPa SSW 14.5 km/h 17.7 km/h 50% 0 mm
15:19 25.7 °C 13.8 °C 1017.2 hPa ESE 8 km/h 22.5 km/h 48% 0 mm
15:24 25.7 °C 13.9 °C 1017.2 hPa SSE 14.5 km/h 22.5 km/h 48% 0 mm
15:29 25.7 °C 14.8 °C 1016.8 hPa SE 9.7 km/h 24.1 km/h 51% 0 mm
15:34 25.9 °C 14.4 °C 1016.8 hPa SE 16.1 km/h 20.9 km/h 49% 0 mm
15:39 25.8 °C 14.6 °C 1016.5 hPa ESE 14.5 km/h 22.5 km/h 50% 0 mm
15:44 25.8 °C 14.6 °C 1016.5 hPa SE 11.3 km/h 22.5 km/h 50% 0 mm
15:49 25.7 °C 14.8 °C 1016.5 hPa SE 11.3 km/h 17.7 km/h 51% 0 mm
15:54 25.8 °C 14.6 °C 1016.1 hPa ESE 16.1 km/h 16.1 km/h 50% 0 mm
15:59 26 °C 14.4 °C 1016.1 hPa ESE 14.5 km/h 25.7 km/h 49% 0 mm
16:04 25.9 °C 14.1 °C 1016.1 hPa SE 11.3 km/h 24.1 km/h 48% 0 mm
16:09 26 °C 14.8 °C 1016.1 hPa SE 14.5 km/h 16.1 km/h 50% 0 mm
16:14 26.1 °C 14.3 °C 1016.1 hPa South 8 km/h 14.5 km/h 48% 0 mm
16:19 26.3 °C 14.4 °C 1015.8 hPa SSE 14.5 km/h 20.9 km/h 48% 0 mm
16:24 26.2 °C 14.7 °C 1015.8 hPa SSE 12.9 km/h 14.5 km/h 49% 0 mm
16:29 26.3 °C 14.4 °C 1015.8 hPa SSE 17.7 km/h 17.7 km/h 48% 0 mm
16:34 26.3 °C 14.1 °C 1015.8 hPa South 8 km/h 17.7 km/h 47% 0 mm
16:39 26.4 °C 15.1 °C 1015.8 hPa SSE 9.7 km/h 9.7 km/h 50% 0 mm
16:44 26.6 °C 15.3 °C 1015.8 hPa SSE 11.3 km/h 11.3 km/h 50% 0 mm
16:49 26.7 °C 15.1 °C 1015.5 hPa SSE 6.4 km/h 11.3 km/h 49% 0 mm
16:54 26.8 °C 15.2 °C 1015.5 hPa ESE 19.3 km/h 19.3 km/h 49% 0 mm
17:00 26.4 °C 13.6 °C 1015.5 hPa SE 11.3 km/h 17.7 km/h 45% 0 mm
17:05 26.3 °C 13.8 °C 1015.5 hPa SE 9.7 km/h 16.1 km/h 46% 0 mm
17:10 26.1 °C 14.3 °C 1015.5 hPa SE 8 km/h 12.9 km/h 48% 0 mm
17:15 26.1 °C 14.6 °C 1015.1 hPa SE 9.7 km/h 9.7 km/h 49% 0 mm
17:20 26.2 °C 14.6 °C 1015.5 hPa SSE 8 km/h 14.5 km/h 49% 0 mm
17:25 26.3 °C 15.4 °C 1015.1 hPa SE 11.3 km/h 11.3 km/h 51% 0 mm
17:30 26.7 °C 14.5 °C 1015.1 hPa SSE 17.7 km/h 19.3 km/h 47% 0 mm
17:35 27.1 °C 14.8 °C 1015.1 hPa SSW 19.3 km/h 19.3 km/h 47% 0 mm
17:40 27.2 °C 14.2 °C 1015.1 hPa SSW 16.1 km/h 19.3 km/h 45% 0 mm
17:45 27.1 °C 14.2 °C 1015.1 hPa SSE 17.7 km/h 24.1 km/h 45% 0 mm
17:50 26.9 °C 14 °C 1015.1 hPa South 14.5 km/h 17.7 km/h 45% 0 mm
17:55 26.8 °C 14.6 °C 1015.1 hPa SSE 17.7 km/h 17.7 km/h 47% 0 mm
18:00 26.6 °C 14.1 °C 1015.1 hPa South 16.1 km/h 20.9 km/h 46% 0 mm
18:05 26.4 °C 14.2 °C 1015.1 hPa SE 12.9 km/h 17.7 km/h 47% 0 mm
18:10 26.3 °C 14.1 °C 1015.1 hPa SSE 6.4 km/h 19.3 km/h 47% 0 mm
18:15 26.1 °C 14.6 °C 1015.1 hPa SE 9.7 km/h 11.3 km/h 49% 0 mm
18:20 26 °C 14.4 °C 1015.1 hPa SSE 4.8 km/h 12.9 km/h 49% 0 mm
18:25 25.8 °C 14.3 °C 1015.1 hPa SE 8 km/h 16.1 km/h 49% 0 mm
18:30 25.7 °C 14.2 °C 1015.1 hPa SE 11.3 km/h 11.3 km/h 49% 0 mm
18:35 25.7 °C 13.8 °C 1015.1 hPa SE 11.3 km/h 19.3 km/h 48% 0 mm
18:40 25.6 °C 14.1 °C 1015.1 hPa SE 6.4 km/h 14.5 km/h 49% 0 mm
18:45 25.5 °C 14 °C 1015.1 hPa ESE 8 km/h 12.9 km/h 49% 0 mm
18:50 25.4 °C 14.2 °C 1015.1 hPa SE 8 km/h 11.3 km/h 50% 0 mm
18:55 25.3 °C 14.2 °C 1015.1 hPa SE 9.7 km/h 12.9 km/h 50% 0 mm
19:00 25.2 °C 13.8 °C 1015.1 hPa SE 9.7 km/h 16.1 km/h 49% 0 mm
19:05 25.2 °C 14.3 °C 1015.1 hPa ESE 4.8 km/h 9.7 km/h 51% 0 mm
19:10 25 °C 14.4 °C 1015.1 hPa SE 6.4 km/h 11.3 km/h 52% 0 mm
19:15 25 °C 14.4 °C 1014.8 hPa ESE 6.4 km/h 8 km/h 52% 0 mm
19:20 25.1 °C 14.5 °C 1014.8 hPa SE 8 km/h 8 km/h 52% 0 mm
19:25 25 °C 14.4 °C 1014.8 hPa SSE 6.4 km/h 11.3 km/h 52% 0 mm
19:30 24.9 °C 14.1 °C 1014.8 hPa SE 11.3 km/h 11.3 km/h 51% 0 mm
19:35 24.8 °C 14.3 °C 1014.8 hPa SE 8 km/h 11.3 km/h 52% 0 mm
19:36 24.8 °C 14.3 °C 1014.8 hPa ESE 6.4 km/h 11.3 km/h 52% 0 mm
19:41 24.7 °C 14.2 °C 1014.8 hPa SE 6.4 km/h 12.9 km/h 52% 0 mm
19:46 24.6 °C 13.8 °C 1014.8 hPa ESE 14.5 km/h 14.5 km/h 51% 0 mm
19:51 24.5 °C 14 °C 1014.8 hPa SE 8 km/h 12.9 km/h 52% 0 mm
19:56 24.3 °C 14.2 °C 1014.8 hPa SE 6.4 km/h 8 km/h 53% 0 mm
20:01 24.1 °C 13.9 °C 1014.8 hPa SE 4.8 km/h 8 km/h 53% 0 mm
20:06 23.9 °C 13.8 °C 1014.8 hPa ESE 4.8 km/h 8 km/h 53% 0 mm
20:11 23.9 °C 14.1 °C 1014.8 hPa SE 6.4 km/h 9.7 km/h 54% 0 mm
20:16 23.7 °C 13.9 °C 1014.8 hPa SE 4.8 km/h 6.4 km/h 54% 0 mm
20:21 23.6 °C 14.1 °C 1014.8 hPa ESE 4.8 km/h 6.4 km/h 55% 0 mm
20:26 23.4 °C 13.9 °C 1015.1 hPa ESE 4.8 km/h 6.4 km/h 55% 0 mm
20:31 23.2 °C 13.9 °C 1015.1 hPa ESE 3.2 km/h 4.8 km/h 56% 0 mm
20:36 23.2 °C 13.9 °C 1015.1 hPa ESE 3.2 km/h 4.8 km/h 56% 0 mm
20:41 22.9 °C 13.7 °C 1015.1 hPa ESE 4.8 km/h 4.8 km/h 56% 0 mm
20:46 22.6 °C 14.2 °C 1015.1 hPa ESE 4.8 km/h 4.8 km/h 59% 0 mm
20:51 22.3 °C 13.9 °C 1015.1 hPa ESE 4.8 km/h 6.4 km/h 59% 0 mm
20:56 22.3 °C 13.9 °C 1015.1 hPa ESE 6.4 km/h 6.4 km/h 59% 0 mm
21:01 22.4 °C 14 °C 1015.1 hPa ESE 8 km/h 11.3 km/h 59% 0 mm
21:06 22.4 °C 14.1 °C 1015.1 hPa ESE 9.7 km/h 9.7 km/h 59% 0 mm
21:11 22.5 °C 14.1 °C 1015.1 hPa SE 4.8 km/h 8 km/h 59% 0 mm
21:16 22.4 °C 14.1 °C 1015.1 hPa ESE 4.8 km/h 8 km/h 59% 0 mm
21:21 22.4 °C 14.1 °C 1014.8 hPa SE 6.4 km/h 11.3 km/h 59% 0 mm
21:26 22.4 °C 14.1 °C 1014.8 hPa SE 4.8 km/h 12.9 km/h 59% 0 mm
21:31 22.4 °C 13.7 °C 1014.8 hPa SE 4.8 km/h 11.3 km/h 58% 0 mm
21:36 22.4 °C 13.7 °C 1015.1 hPa ESE 11.3 km/h 11.3 km/h 58% 0 mm
21:41 22.6 °C 13.9 °C 1015.1 hPa SE 6.4 km/h 9.7 km/h 58% 0 mm
21:46 22.6 °C 13.6 °C 1015.1 hPa SE 6.4 km/h 12.9 km/h 57% 0 mm
21:51 22.5 °C 13.6 °C 1015.1 hPa SE 9.7 km/h 11.3 km/h 57% 0 mm
21:56 22.4 °C 13.7 °C 1015.1 hPa ESE 6.4 km/h 9.7 km/h 58% 0 mm
22:01 22.3 °C 13.6 °C 1015.1 hPa ESE 6.4 km/h 11.3 km/h 58% 0 mm
22:06 22.2 °C 13.5 °C 1015.1 hPa SE 6.4 km/h 9.7 km/h 58% 0 mm
22:11 22.2 °C 13.5 °C 1015.1 hPa SE 4.8 km/h 12.9 km/h 58% 0 mm
22:17 22.2 °C 13.5 °C 1015.1 hPa SE 4.8 km/h 11.3 km/h 58% 0 mm
22:22 22.1 °C 13.4 °C 1015.1 hPa SE 6.4 km/h 11.3 km/h 58% 0 mm
22:27 22.1 °C 13.4 °C 1015.1 hPa SE 8 km/h 11.3 km/h 58% 0 mm
22:32 21.9 °C 13.3 °C 1015.1 hPa SE 4.8 km/h 9.7 km/h 58% 0 mm
22:37 21.7 °C 13.6 °C 1015.1 hPa ESE 6.4 km/h 8 km/h 60% 0 mm
22:42 21.6 °C 13.5 °C 1015.1 hPa SE 6.4 km/h 9.7 km/h 60% 0 mm
22:47 21.6 °C 13.5 °C 1015.1 hPa SE 9.7 km/h 11.3 km/h 60% 0 mm
22:52 21.7 °C 13.6 °C 1015.1 hPa ESE 6.4 km/h 11.3 km/h 60% 0 mm
22:57 21.6 °C 13.5 °C 1015.1 hPa SE 6.4 km/h 11.3 km/h 60% 0 mm
23:02 21.6 °C 13.4 °C 1015.1 hPa SE 6.4 km/h 12.9 km/h 60% 0 mm
23:07 21.7 °C 13.6 °C 1015.1 hPa SE 9.7 km/h 12.9 km/h 60% 0 mm
23:12 21.7 °C 13.6 °C 1015.1 hPa SE 8 km/h 9.7 km/h 60% 0 mm
23:17 21.8 °C 13.4 °C 1015.5 hPa SE 8 km/h 12.9 km/h 59% 0 mm
23:22 21.7 °C 13.6 °C 1015.5 hPa SSE 8 km/h 9.7 km/h 60% 0 mm
23:27 21.6 °C 13.5 °C 1015.5 hPa SSE 6.4 km/h 16.1 km/h 60% 0 mm
23:32 21.5 °C 13.7 °C 1015.5 hPa SE 6.4 km/h 11.3 km/h 61% 0 mm
23:37 21.4 °C 13.6 °C 1015.5 hPa SSE 8 km/h 12.9 km/h 61% 0 mm
23:42 21.4 °C 13.6 °C 1015.5 hPa SE 8 km/h 11.3 km/h 61% 0 mm
23:47 21.3 °C 13.5 °C 1015.5 hPa SE 6.4 km/h 9.7 km/h 61% 0 mm
23:52 21.4 °C 13.6 °C 1015.5 hPa SE 8 km/h 12.9 km/h 61% 0 mm
23:57 21.3 °C 13.5 °C 1015.5 hPa SE 8 km/h 11.3 km/h 61% 0 mm
Compliments of Weather Underground